| time (UTC) | temp C | wind direction | speed KPH | gust KPH | rain 1hr cm | rain 24hr cm | rain mn cm | humidity % | barometer mb |
| 20260906193344 | 18 | 0.0 | 0.0 | 0.00 | 0.00 | 0.00 | 94 | 1021.2 | |
| 20260906192839 | 19 | 0.0 | 0.0 | 0.00 | 0.00 | 0.00 | 91 | 1021.2 | |
| 20260906192333 | 20 | 0.0 | 0.0 | 0.00 | 0.00 | 0.00 | 88 | 1021.2 | |
| 20260906191833 | 20 | 0.0 | 0.0 | 0.00 | 0.00 | 0.00 | 86 | 1020.8 | |
| 20260906191332 | 21 | 0.0 | 0.0 | 0.00 | 0.00 | 0.00 | 84 | 1020.8 | |
| 20260906190827 | 21 | 0.0 | 0.0 | 0.00 | 0.00 | 0.00 | 82 | 1020.5 | |
| 20260906190326 | 22 | 0.0 | 0.0 | 0.00 | 0.00 | 0.00 | 81 | 1020.5 | |
| 20260906185821 | 22 | 0.0 | 0.0 | 0.00 | 0.00 | 0.00 | 79 | 1019.4 | |
| 20260906185320 | 24 | 0.0 | 0.0 | 0.00 | 0.00 | 0.00 | 74 | 1019.4 | |
| 20260906184814 | 25 | 0.0 | 0.0 | 0.00 | 0.00 | 0.00 | 82 | 1019.0 | |
| 20260906184310 | 25 | 0.0 | 0.0 | 0.00 | 0.00 | 0.00 | 82 | 1018.7 | |
| 20260906183805 | 26 | 0.0 | 0.0 | 0.00 | 0.00 | 0.00 | 82 | 1018.7 | |
| 20260906183301 | 26 | 0.0 | 0.0 | 0.00 | 0.00 | 0.00 | 82 | 1019.0 | |
| 20260906182801 | 26 | 0.0 | 0.0 | 0.00 | 0.00 | 0.00 | 81 | 1019.0 | |
| 20260906182257 | 26 | 0.0 | 0.0 | 0.00 | 0.00 | 0.00 | 80 | 1018.7 | |
| 20260906181752 | 26 | 0.0 | 0.0 | 0.00 | 0.00 | 0.00 | 79 | 1018.7 | |
| 20260906181248 | 26 | 0.0 | 0.0 | 0.00 | 0.00 | 0.00 | 78 | 1018.7 | |
| 20260906180743 | 26 | 0.0 | 0.0 | 0.00 | 0.00 | 0.00 | 77 | 1019.0 | |
| 20260906180238 | 27 | 0.0 | 0.0 | 0.00 | 0.00 | 0.00 | 77 | 1019.0 | |
| 20260906175736 | 27 | 0.0 | 0.0 | 0.00 | 0.00 | 0.00 | 76 | 1019.0 | |
| 20260906175232 | 27 | 0.0 | 0.0 | 0.00 | 0.00 | 0.00 | 77 | 1019.0 | |
| 20260906174729 | 27 | 0.0 | 0.0 | 0.00 | 0.00 | 0.00 | 77 | 1018.7 | |
| 20260906174224 | 27 | 0.0 | 0.0 | 0.00 | 0.00 | 0.00 | 77 | 1019.0 | |
| 20260906173719 | 27 | 0.0 | 0.0 | 0.00 | 0.00 | 0.00 | 78 | 1019.0 | |
| 20260906173214 | 27 | 0.0 | 0.0 | 0.00 | 0.00 | 0.00 | 79 | 1019.0 | |
| 20260906172714 | 27 | 0.0 | 0.0 | 0.00 | 0.00 | 0.00 | 80 | 1019.4 | |
| 20260906172209 | 26 | 0.0 | 0.0 | 0.00 | 0.00 | 0.00 | 82 | 1019.4 | |
| 20260906171704 | 26 | 0.0 | 0.0 | 0.00 | 0.00 | 0.00 | 84 | 1019.4 | |
| 20260906171200 | 26 | 0.0 | 0.0 | 0.00 | 0.00 | 0.00 | 84 | 1019.4 | |
| 20260906170656 | 26 | 0.0 | 0.0 | 0.00 | 0.00 | 0.00 | 84 | 1019.4 | |
| 20260906170156 | 26 | 0.0 | 0.0 | 0.00 | 0.00 | 0.00 | 85 | 1019.0 | |
| 20260906165652 | 26 | 0.0 | 0.0 | 0.00 | 0.00 | 0.00 | 85 | 1019.4 | |
| 20260906165147 | 26 | 0.0 | 0.0 | 0.00 | 0.00 | 0.00 | 86 | 1019.4 | |
| 20260906164646 | 25 | 0.0 | 0.0 | 0.00 | 0.00 | 0.00 | 88 | 1019.0 | |
| 20260906164141 | 25 | 0.0 | 0.0 | 0.00 | 0.00 | 0.00 | 88 | 1019.4 | |
| 20260906163637 | 25 | 0.0 | 0.0 | 0.00 | 0.00 | 0.00 | 88 | 1019.0 | |
| 20260906163133 | 25 | 0.0 | 0.0 | 0.00 | 0.00 | 0.00 | 87 | 1019.0 | |
| 20260906162630 | 25 | 0.0 | 0.0 | 0.00 | 0.00 | 0.00 | 87 | 1019.0 | |
| 20260906162129 | 25 | 0.0 | 0.0 | 0.00 | 0.00 | 0.00 | 87 | 1019.4 | |
| 20260906161624 | 25 | 0.0 | 0.0 | 0.00 | 0.00 | 0.00 | 87 | 1019.0 | |
| 20260906161123 | 25 | 0.0 | 0.0 | 0.00 | 0.00 | 0.00 | 88 | 1019.0 | |
| 20260906160622 | 25 | 0.0 | 0.0 | 0.00 | 0.00 | 0.00 | 88 | 1018.7 | |
| 20260906160121 | 25 | 0.0 | 0.0 | 0.00 | 0.00 | 0.00 | 88 | 1018.2 | |
| 20260906155619 | 25 | 0.0 | 0.0 | 0.00 | 0.00 | 0.00 | 88 | 1018.2 | |
| 20260906155115 | 25 | 0.0 | 0.0 | 0.00 | 0.00 | 0.00 | 88 | 1018.7 | |
| 20260906154610 | 25 | 0.0 | 0.0 | 0.00 | 0.00 | 0.00 | 89 | 1018.2 | |
| 20260906154109 | 25 | 0.0 | 0.0 | 0.00 | 0.00 | 0.00 | 89 | 1018.2 | |
| 20260906153608 | 25 | 0.0 | 0.0 | 0.00 | 0.00 | 0.00 | 89 | 1018.2 | |
| 20260906153103 | 25 | 0.0 | 0.0 | 0.00 | 0.00 | 0.00 | 89 | 1018.2 | |
| 20260906152603 | 25 | 0.0 | 0.0 | 0.00 | 0.00 | 0.00 | 89 | 1018.7 | |
| 20260906152057 | 25 | 0.0 | 0.0 | 0.00 | 0.00 | 0.00 | 89 | 1018.7 | |
| 20260906151552 | 25 | 0.0 | 0.0 | 0.00 | 0.00 | 0.00 | 89 | 1018.7 | |
| 20260906151048 | 25 | 0.0 | 0.0 | 0.00 | 0.00 | 0.00 | 89 | 1019.0 | |
| 20260906150543 | 25 | 0.0 | 0.0 | 0.00 | 0.00 | 0.00 | 89 | 1018.7 | |
| 20260906150038 | 25 | 0.0 | 0.0 | 0.00 | 0.00 | 0.00 | 90 | 1018.7 | |
| 20260906145536 | 25 | 0.0 | 0.0 | 0.00 | 0.00 | 0.00 | 89 | 1018.7 | |
| 20260906145032 | 25 | 0.0 | 0.0 | 0.00 | 0.00 | 0.00 | 89 | 1018.7 | |
| 20260906144520 | 24 | 0.0 | 0.0 | 0.00 | 0.00 | 0.00 | 90 | 1018.7 | |
| 20260906144016 | 24 | 0.0 | 0.0 | 0.00 | 0.00 | 0.00 | 90 | 1018.2 | |
| 20260906143511 | 24 | 0.0 | 0.0 | 0.00 | 0.00 | 0.00 | 90 | 1018.7 | |
| 20260906143007 | 24 | 0.0 | 0.0 | 0.00 | 0.00 | 0.00 | 90 | 1018.2 | |
| 20260906142501 | 24 | 0.0 | 0.0 | 0.00 | 0.00 | 0.00 | 90 | 1018.2 | |
| 20260906141956 | 24 | 0.0 | 0.0 | 0.00 | 0.00 | 0.00 | 90 | 1018.7 | |
| 20260906141455 | 24 | 0.0 | 0.0 | 0.00 | 0.00 | 0.00 | 91 | 1018.7 | |
| 20260906140950 | 24 | 0.0 | 0.0 | 0.00 | 0.00 | 0.00 | 91 | 1018.2 | |
| 20260906140444 | 24 | 0.0 | 0.0 | 0.00 | 0.00 | 0.00 | 92 | 1018.7 | |
| 20260906135937 | 24 | 0.0 | 0.0 | 0.00 | 0.00 | 0.00 | 92 | 1018.2 | |
| 20260906135436 | 24 | 0.0 | 0.0 | 0.00 | 0.00 | 0.00 | 93 | 1018.7 | |
| 20260906134932 | 24 | 0.0 | 0.0 | 0.00 | 0.00 | 0.00 | 93 | 1018.2 | |
| 20260906134427 | 23 | 0.0 | 0.0 | 0.00 | 0.00 | 0.00 | 93 | 1018.2 | |
| 20260906133922 | 23 | 0.0 | 0.0 | 0.00 | 0.00 | 0.00 | 94 | 1018.2 | |
| 20260906133418 | 23 | 0.0 | 0.0 | 0.00 | 0.00 | 0.00 | 94 | 1018.7 | |
| 20260906132913 | 23 | 0.0 | 0.0 | 0.00 | 0.00 | 0.00 | 95 | 1018.7 | |
| 20260906132409 | 23 | 0.0 | 0.0 | 0.00 | 0.00 | 0.00 | 95 | 1018.7 | |
| 20260906131903 | 23 | 0.0 | 0.0 | 0.00 | 0.00 | 0.00 | 95 | 1018.7 | |
| 20260906131359 | 23 | 0.0 | 0.0 | 0.00 | 0.00 | 0.00 | 96 | 1018.7 | |
| 20260906130855 | 23 | 0.0 | 0.0 | 0.00 | 0.00 | 0.00 | 96 | 1018.7 | |
| 20260906130354 | 23 | 0.0 | 0.0 | 0.00 | 0.00 | 0.00 | 96 | 1018.7 | |
| 20260906125853 | 23 | 0.0 | 0.0 | 0.00 | 0.00 | 0.00 | 96 | 1018.7 | |
| 20260906125350 | 23 | 0.0 | 0.0 | 0.00 | 0.00 | 0.00 | 96 | 1018.7 | |
| 20260906124845 | 23 | 0.0 | 0.0 | 0.00 | 0.00 | 0.00 | 96 | 1018.7 | |
| 20260906124341 | 23 | 0.0 | 0.0 | 0.00 | 0.00 | 0.00 | 97 | 1018.7 | |
| 20260906123840 | 23 | 0.0 | 0.0 | 0.00 | 0.00 | 0.00 | 97 | 1018.2 | |
| 20260906123335 | 23 | 0.0 | 0.0 | 0.00 | 0.00 | 0.00 | 97 | 1018.2 | |
| 20260906122834 | 23 | 0.0 | 0.0 | 0.00 | 0.00 | 0.00 | 97 | 1018.2 | |
| 20260906122324 | 23 | 0.0 | 0.0 | 0.00 | 0.00 | 0.00 | 97 | 1018.2 | |
| 20260906121821 | 23 | 0.0 | 0.0 | 0.00 | 0.00 | 0.00 | 97 | 1018.2 | |
| 20260906121317 | 23 | 0.0 | 0.0 | 0.00 | 0.00 | 0.00 | 97 | 1017.9 | |
| 20260906120813 | 23 | 0.0 | 0.0 | 0.00 | 0.00 | 0.00 | 97 | 1018.2 | |
| 20260906120308 | 23 | 0.0 | 0.0 | 0.00 | 0.00 | 0.00 | 97 | 1017.9 | |
| 20260906115804 | 23 | 0.0 | 0.0 | 0.00 | 0.00 | 0.00 | 97 | 1018.2 | |
| 20260906115254 | 23 | 0.0 | 0.0 | 0.00 | 0.00 | 0.00 | 97 | 1017.6 | |
| 20260906114753 | 23 | 0.0 | 0.0 | 0.00 | 0.00 | 0.00 | 97 | 1017.9 | |
| 20260906114249 | 23 | 0.0 | 0.0 | 0.00 | 0.00 | 0.00 | 97 | 1017.9 | |
| 20260906113744 | 23 | 0.0 | 0.0 | 0.00 | 0.00 | 0.00 | 97 | 1017.9 | |
| 20260906113243 | 23 | 0.0 | 0.0 | 0.00 | 0.00 | 0.00 | 97 | 1017.9 | |
| 20260906112743 | 23 | 0.0 | 0.0 | 0.00 | 0.00 | 0.00 | 96 | 1017.6 | |
| 20260906112239 | 23 | 0.0 | 0.0 | 0.00 | 0.00 | 0.00 | 96 | 1017.6 | |
| 20260906111739 | 23 | 0.0 | 0.0 | 0.00 | 0.00 | 0.00 | 96 | 1017.9 | |
| 20260906111233 | 23 | 0.0 | 0.0 | 0.00 | 0.00 | 0.00 | 96 | 1017.9 | |
| 20260906110728 | 23 | 0.0 | 0.0 | 0.00 | 0.00 | 0.00 | 95 | 1017.6 | |
| 20260906110219 | 23 | 0.0 | 0.0 | 0.00 | 0.00 | 0.00 | 95 | 1017.9 | |
| 20260906105717 | 23 | 0.0 | 0.0 | 0.00 | 0.00 | 0.00 | 95 | 1017.9 | |
| 20260906105214 | 22 | 0.0 | 0.0 | 0.00 | 0.00 | 0.00 | 96 | 1017.9 | |
| 20260906104713 | 22 | 0.0 | 0.0 | 0.00 | 0.00 | 0.00 | 96 | 1017.9 | |
| 20260906104213 | 22 | 0.0 | 0.0 | 0.00 | 0.00 | 0.00 | 95 | 1017.9 | |
| 20260906103710 | 22 | 0.0 | 0.0 | 0.00 | 0.00 | 0.00 | 95 | 1017.9 | |
| 20260906103205 | 22 | 0.0 | 0.0 | 0.00 | 0.00 | 0.00 | 95 | 1017.6 | |
| 20260906102701 | 23 | 0.0 | 0.0 | 0.00 | 0.00 | 0.00 | 94 | 1017.6 | |
| 20260906102200 | 23 | 0.0 | 0.0 | 0.00 | 0.00 | 0.00 | 95 | 1017.6 | |
| 20260906101659 | 23 | 0.0 | 0.0 | 0.00 | 0.00 | 0.00 | 95 | 1017.9 | |
| 20260906101155 | 23 | 0.0 | 0.0 | 0.00 | 0.00 | 0.00 | 94 | 1017.6 | |
| 20260906100650 | 23 | 0.0 | 0.0 | 0.00 | 0.00 | 0.00 | 94 | 1017.9 | |
| 20260906100145 | 22 | 0.0 | 0.0 | 0.00 | 0.00 | 0.00 | 95 | 1017.6 | |
| 20260906095640 | 22 | 0.0 | 0.0 | 0.00 | 0.00 | 0.00 | 94 | 1017.9 | |
| 20260906095135 | 23 | 0.0 | 0.0 | 0.00 | 0.00 | 0.00 | 93 | 1017.6 | |
| 20260906094634 | 23 | 0.0 | 0.0 | 0.00 | 0.00 | 0.00 | 94 | 1017.9 | |
| 20260906094130 | 23 | 0.0 | 0.0 | 0.00 | 0.00 | 0.00 | 95 | 1017.9 | |
| 20260906093626 | 23 | 0.0 | 0.0 | 0.00 | 0.00 | 0.00 | 95 | 1017.6 | |
| 20260906093126 | 23 | 0.0 | 0.0 | 0.00 | 0.00 | 0.00 | 95 | 1017.9 | |
| 20260906092621 | 23 | 0.0 | 0.0 | 0.00 | 0.00 | 0.00 | 95 | 1017.6 | |
| 20260906092116 | 23 | 0.0 | 0.0 | 0.00 | 0.00 | 0.00 | 95 | 1017.9 | |
| 20260906091612 | 23 | 0.0 | 0.0 | 0.00 | 0.00 | 0.00 | 94 | 1018.2 | |
| 20260906091109 | 23 | 0.0 | 0.0 | 0.00 | 0.00 | 0.00 | 95 | 1018.2 | |
| 20260906090608 | 23 | 0.0 | 0.0 | 0.00 | 0.00 | 0.00 | 95 | 1017.9 | |
| 20260906090103 | 23 | 0.0 | 0.0 | 0.00 | 0.00 | 0.00 | 96 | 1017.9 | |
| 20260906085602 | 23 | 0.0 | 0.0 | 0.00 | 0.00 | 0.00 | 96 | 1017.9 | |
| 20260906085057 | 23 | 0.0 | 0.0 | 0.00 | 0.00 | 0.00 | 97 | 1017.9 | |
| 20260906084551 | 23 | 0.0 | 0.0 | 0.00 | 0.00 | 0.00 | 97 | 1017.9 | |
| 20260906084050 | 23 | 0.0 | 0.0 | 0.00 | 0.00 | 0.00 | 97 | 1017.9 | |
| 20260906083546 | 23 | 0.0 | 0.0 | 0.00 | 0.00 | 0.00 | 97 | 1017.9 | |
| 20260906083045 | 23 | 0.0 | 0.0 | 0.00 | 0.00 | 0.00 | 97 | 1017.9 | |
| 20260906082540 | 23 | 0.0 | 0.0 | 0.00 | 0.00 | 0.00 | 98 | 1017.6 | |
| 20260906082031 | 23 | 0.0 | 0.0 | 0.00 | 0.00 | 0.00 | 98 | 1017.2 | |
| 20260906081526 | 23 | 0.0 | 0.0 | 0.00 | 0.00 | 0.00 | 97 | 1017.2 | |
| 20260906081021 | 23 | 0.0 | 0.0 | 0.00 | 0.00 | 0.00 | 97 | 1017.2 | |
| 20260906080517 | 23 | 0.0 | 0.0 | 0.00 | 0.00 | 0.00 | 96 | 1017.2 | |
| 20260906080013 | 23 | 0.0 | 0.0 | 0.00 | 0.00 | 0.00 | 96 | 1017.6 | |
| 20260906075507 | 23 | 0.0 | 0.0 | 0.00 | 0.00 | 0.00 | 96 | 1017.6 | |
| 20260906075002 | 22 | 0.0 | 0.0 | 0.00 | 0.00 | 0.00 | 96 | 1017.2 | |
| 20260906074457 | 22 | 0.0 | 0.0 | 0.00 | 0.00 | 0.00 | 96 | 1017.2 | |
| 20260906073955 | 22 | 0.0 | 0.0 | 0.00 | 0.00 | 0.00 | 96 | 1017.2 | |
| 20260906073450 | 22 | 0.0 | 0.0 | 0.00 | 0.00 | 0.00 | 95 | 1017.2 | |
| 20260906072947 | 22 | 0.0 | 0.0 | 0.00 | 0.00 | 0.00 | 94 | 1017.6 | |
| 20260906072442 | 22 | 0.0 | 0.0 | 0.00 | 0.00 | 0.00 | 94 | 1017.6 | |
| 20260906071938 | 22 | 0.0 | 0.0 | 0.00 | 0.00 | 0.00 | 93 | 1017.2 | |
| 20260906071433 | 23 | 0.0 | 0.0 | 0.00 | 0.00 | 0.00 | 91 | 1017.6 | |
| 20260906070929 | 23 | 0.0 | 0.0 | 0.00 | 0.00 | 0.00 | 91 | 1017.6 | |
| 20260906070425 | 23 | 0.0 | 0.0 | 0.00 | 0.00 | 0.00 | 91 | 1017.6 | |
| 20260906065921 | 23 | 0.0 | 0.0 | 0.00 | 0.00 | 0.00 | 92 | 1017.9 | |
| 20260906065415 | 23 | 0.0 | 0.0 | 0.00 | 0.00 | 0.00 | 92 | 1017.6 | |
| 20260906064911 | 23 | 0.0 | 0.0 | 0.00 | 0.00 | 0.00 | 92 | 1017.6 | |
| 20260906064407 | 23 | 0.0 | 0.0 | 0.00 | 0.00 | 0.00 | 93 | 1017.6 | |
| 20260906063907 | 23 | 0.0 | 0.0 | 0.00 | 0.00 | 0.00 | 93 | 1017.9 | |
| 20260906063401 | 23 | 0.0 | 0.0 | 0.00 | 0.00 | 0.00 | 94 | 1017.9 | |
| 20260906062856 | 23 | 0.0 | 0.0 | 0.00 | 0.00 | 0.00 | 94 | 1017.6 | |
| 20260906062355 | 23 | 0.0 | 0.0 | 0.00 | 0.00 | 0.00 | 94 | 1017.6 | |
| 20260906061851 | 23 | 0.0 | 0.0 | 0.00 | 0.00 | 0.00 | 94 | 1017.9 | |
| 20260906061348 | 23 | 0.0 | 0.0 | 0.00 | 0.00 | 0.00 | 93 | 1017.6 | |
| 20260906060843 | 23 | 0.0 | 0.0 | 0.00 | 0.00 | 0.00 | 92 | 1017.9 | |
| 20260906060340 | 23 | 0.0 | 0.0 | 0.00 | 0.00 | 0.00 | 92 | 1017.9 | |
| 20260906055836 | 23 | 0.0 | 0.0 | 0.00 | 0.00 | 0.00 | 91 | 1017.6 | |
| 20260906055332 | 23 | 0.0 | 0.0 | 0.00 | 0.00 | 0.00 | 90 | 1017.9 | |
| 20260906054826 | 23 | 0.0 | 0.0 | 0.00 | 0.00 | 0.00 | 90 | 1017.9 | |
| 20260906054321 | 23 | 0.0 | 0.0 | 0.00 | 0.00 | 0.00 | 90 | 1017.9 | |
| 20260906053818 | 22 | 0.0 | 0.0 | 0.00 | 0.00 | 0.00 | 91 | 1017.9 | |
| 20260906053313 | 22 | 0.0 | 0.0 | 0.00 | 0.00 | 0.00 | 90 | 1017.9 | |
| 20260906052808 | 22 | 0.0 | 0.0 | 0.00 | 0.00 | 0.00 | 90 | 1018.2 | |
| 20260906052306 | 22 | 0.0 | 0.0 | 0.00 | 0.00 | 0.00 | 89 | 1017.9 | |
| 20260906051801 | 22 | 0.0 | 0.0 | 0.00 | 0.00 | 0.00 | 89 | 1017.9 | |
| 20260906051300 | 22 | 0.0 | 0.0 | 0.00 | 0.00 | 0.00 | 89 | 1018.2 | |
| 20260906050756 | 22 | 0.0 | 0.0 | 0.00 | 0.00 | 0.00 | 88 | 1017.9 | |
| 20260906050251 | 23 | 0.0 | 0.0 | 0.00 | 0.00 | 0.00 | 87 | 1017.9 | |
| 20260906045749 | 23 | 0.0 | 0.0 | 0.00 | 0.00 | 0.00 | 87 | 1017.9 | |
| 20260906045244 | 23 | 0.0 | 0.0 | 0.00 | 0.00 | 0.00 | 87 | 1018.2 | |
| 20260906044740 | 22 | 0.0 | 0.0 | 0.00 | 0.00 | 0.00 | 87 | 1018.2 | |
| 20260906044235 | 22 | 0.0 | 0.0 | 0.00 | 0.00 | 0.00 | 87 | 1017.6 | |
| 20260906043731 | 22 | 0.0 | 0.0 | 0.00 | 0.00 | 0.00 | 86 | 1017.9 | |
| 20260906043227 | 22 | 0.0 | 0.0 | 0.00 | 0.00 | 0.00 | 86 | 1017.6 | |
| 20260906042727 | 22 | 0.0 | 0.0 | 0.00 | 0.00 | 0.00 | 86 | 1017.6 | |
| 20260906042226 | 22 | 0.0 | 0.0 | 0.00 | 0.00 | 0.00 | 85 | 1017.9 | |
| 20260906041721 | 23 | 0.0 | 0.0 | 0.00 | 0.00 | 0.00 | 84 | 1017.6 | |
| 20260906041217 | 23 | 0.0 | 0.0 | 0.00 | 0.00 | 0.00 | 84 | 1017.6 | |
| 20260906040712 | 23 | 0.0 | 0.0 | 0.00 | 0.00 | 0.00 | 83 | 1017.6 | |
| 20260906040207 | 23 | 0.0 | 0.0 | 0.00 | 0.00 | 0.00 | 83 | 1017.6 | |
| 20260906035704 | 23 | 0.0 | 0.0 | 0.00 | 0.00 | 0.00 | 83 | 1017.9 | |
| 20260906035159 | 23 | 0.0 | 0.0 | 0.00 | 0.00 | 0.00 | 83 | 1017.9 | |
| 20260906034658 | 22 | 0.0 | 0.0 | 0.00 | 0.00 | 0.00 | 84 | 1017.9 | |
| 20260906034154 | 22 | 0.0 | 0.0 | 0.00 | 0.00 | 0.00 | 84 | 1017.9 | |
| 20260906033650 | 22 | 0.0 | 0.0 | 0.00 | 0.00 | 0.00 | 84 | 1017.9 | |
| 20260906033149 | 22 | 0.0 | 0.0 | 0.00 | 0.00 | 0.00 | 84 | 1017.6 | |
| 20260906032646 | 22 | 0.0 | 0.0 | 0.00 | 0.00 | 0.00 | 83 | 1017.6 | |
| 20260906032146 | 22 | 0.0 | 0.0 | 0.00 | 0.00 | 0.00 | 83 | 1017.2 | |
| 20260906031641 | 22 | 0.0 | 0.0 | 0.00 | 0.00 | 0.00 | 82 | 1017.9 | |
| 20260906031137 | 22 | 0.0 | 0.0 | 0.00 | 0.00 | 0.00 | 81 | 1017.6 | |
| 20260906030636 | 23 | 0.0 | 0.0 | 0.00 | 0.00 | 0.00 | 80 | 1017.9 | |
| 20260906030131 | 23 | 0.0 | 0.0 | 0.00 | 0.00 | 0.00 | 80 | 1018.2 | |
| 20260906025630 | 23 | 0.0 | 0.0 | 0.00 | 0.00 | 0.00 | 79 | 1017.9 | |
| 20260906025130 | 23 | 0.0 | 0.0 | 0.00 | 0.00 | 0.00 | 79 | 1017.6 | |
| 20260906024624 | 23 | 0.0 | 0.0 | 0.00 | 0.00 | 0.00 | 79 | 1017.6 | |
| 20260906024119 | 23 | 0.0 | 0.0 | 0.00 | 0.00 | 0.00 | 78 | 1017.6 | |
| 20260906023609 | 23 | 0.0 | 0.0 | 0.00 | 0.00 | 0.00 | 77 | 1017.6 | |
| 20260906023104 | 23 | 0.0 | 0.0 | 0.00 | 0.00 | 0.00 | 76 | 1017.6 | |
| 20260906022559 | 23 | 0.0 | 0.0 | 0.00 | 0.00 | 0.00 | 75 | 1017.2 | |
| 20260906022055 | 23 | 0.0 | 0.0 | 0.00 | 0.00 | 0.00 | 75 | 1017.6 | |
| 20260906021550 | 23 | 0.0 | 0.0 | 0.00 | 0.00 | 0.00 | 74 | 1017.6 | |
| 20260906021048 | 24 | 0.0 | 0.0 | 0.00 | 0.00 | 0.00 | 74 | 1017.2 | |
| 20260906020543 | 24 | 0.0 | 0.0 | 0.00 | 0.00 | 0.00 | 73 | 1017.2 | |
| 20260906020043 | 24 | 0.0 | 0.0 | 0.00 | 0.00 | 0.00 | 72 | 1017.6 | |
| 20260906015542 | 24 | 0.0 | 0.0 | 0.00 | 0.00 | 0.00 | 71 | 1017.2 | |
| 20260906015041 | 24 | 0.0 | 0.0 | 0.00 | 0.00 | 0.00 | 71 | 1017.2 | |
| 20260906014536 | 25 | 0.0 | 0.0 | 0.00 | 0.00 | 0.00 | 70 | 1017.2 | |
| 20260906014032 | 25 | 0.0 | 0.0 | 0.00 | 0.00 | 0.00 | 70 | 1017.2 | |
| 20260906013527 | 25 | 0.0 | 0.0 | 0.00 | 0.00 | 0.00 | 69 | 1017.2 | |
| 20260906013023 | 25 | 0.0 | 0.0 | 0.00 | 0.00 | 0.00 | 69 | 1017.2 | |
| 20260906012518 | 25 | 0.0 | 0.0 | 0.00 | 0.00 | 0.00 | 69 | 1016.9 | |
| 20260906012017 | 25 | 0.0 | 0.0 | 0.00 | 0.00 | 0.00 | 69 | 1016.9 | |
| 20260906011514 | 25 | 0.0 | 0.0 | 0.00 | 0.00 | 0.00 | 68 | 1016.9 | |
| 20260906011013 | 26 | 0.0 | 0.0 | 0.00 | 0.00 | 0.00 | 68 | 1016.9 | |
| 20260906010509 | 26 | 0.0 | 0.0 | 0.00 | 0.00 | 0.00 | 68 | 1016.9 | |
| 20260906010006 | 26 | 0.0 | 0.0 | 0.00 | 0.00 | 0.00 | 68 | 1017.2 | |
| 20260906005504 | 26 | 0.0 | 0.0 | 0.00 | 0.00 | 0.00 | 67 | 1017.2 | |
| 20260906005003 | 26 | 0.0 | 0.0 | 0.00 | 0.00 | 0.00 | 66 | 1017.2 | |
| 20260906004457 | 26 | 0.0 | 0.0 | 0.00 | 0.00 | 0.00 | 64 | 1017.2 | |
| 20260906003952 | 27 | 0.0 | 0.0 | 0.00 | 0.00 | 0.00 | 62 | 1016.9 | |
| 20260906003448 | 27 | 0.0 | 0.0 | 0.00 | 0.00 | 0.00 | 60 | 1016.9 | |
| 20260906002943 | 27 | 0.0 | 0.0 | 0.00 | 0.00 | 0.00 | 59 | 1016.9 | |
| 20260906002443 | 27 | 0.0 | 0.0 | 0.00 | 0.00 | 0.00 | 58 | 1016.9 | |
| 20260906001938 | 28 | 0.0 | 0.0 | 0.00 | 0.00 | 0.00 | 57 | 1016.5 | |
| 20260906001434 | 28 | 0.0 | 0.0 | 0.00 | 0.00 | 0.00 | 56 | 1016.5 | |
| 20260906000928 | 28 | 0.0 | 0.0 | 0.00 | 0.00 | 0.00 | 55 | 1016.5 | |
| 20260906000425 | 28 | 0.0 | 0.0 | 0.00 | 0.00 | 0.00 | 54 | 1016.5 | |
| 20260905235918 | 28 | 0.0 | 0.0 | 0.00 | 0.00 | 0.00 | 52 | 1016.5 | |
| 20260905235413 | 29 | 0.0 | 0.0 | 0.00 | 0.00 | 0.00 | 51 | 1016.5 | |
| 20260905234908 | 29 | 0.0 | 0.0 | 0.00 | 0.00 | 0.00 | 50 | 1016.5 | |
| 20260905234403 | 30 | 0.0 | 0.0 | 0.00 | 0.00 | 0.00 | 51 | 1016.1 | |
| 20260905233858 | 30 | 0.0 | 0.0 | 0.00 | 0.00 | 0.00 | 50 | 1016.1 | |
| 20260905233353 | 30 | 0.0 | 0.0 | 0.00 | 0.00 | 0.00 | 51 | 1016.1 | |
| 20260905232852 | 30 | 0.0 | 0.0 | 0.00 | 0.00 | 0.00 | 50 | 1016.1 | |
| 20260905232349 | 30 | 0.0 | 0.0 | 0.00 | 0.00 | 0.00 | 49 | 1016.1 | |
| 20260905231844 | 30 | 0.0 | 0.0 | 0.00 | 0.00 | 0.00 | 49 | 1016.1 | |
| 20260905231338 | 30 | 0.0 | 0.0 | 0.00 | 0.00 | 0.00 | 48 | 1016.1 | |
| 20260905230835 | 30 | 0.0 | 0.0 | 0.00 | 0.00 | 0.00 | 48 | 1016.1 | |
| 20260905230333 | 30 | 0.0 | 0.0 | 0.00 | 0.00 | 0.00 | 48 | 1016.1 | |
| 20260905225832 | 30 | 0.0 | 0.0 | 0.00 | 0.00 | 0.00 | 48 | 1016.1 | |
| 20260905225327 | 30 | 0.0 | 0.0 | 0.00 | 0.00 | 0.00 | 47 | 1016.1 | |
| 20260905224821 | 30 | 0.0 | 0.0 | 0.00 | 0.00 | 0.00 | 47 | 1016.1 | |
| 20260905224317 | 30 | 0.0 | 0.0 | 0.00 | 0.00 | 0.00 | 47 | 1016.1 | |
| 20260905223812 | 30 | 0.0 | 0.0 | 0.00 | 0.00 | 0.00 | 47 | 1015.8 | |
| 20260905223310 | 30 | 0.0 | 0.0 | 0.00 | 0.00 | 0.00 | 47 | 1016.1 | |
| 20260905222804 | 30 | 0.0 | 0.0 | 0.00 | 0.00 | 0.00 | 47 | 1016.1 | |
| 20260905222306 | 30 | 0.0 | 0.0 | 0.00 | 0.00 | 0.00 | 47 | 1015.8 | |
| 20260905221800 | 30 | 0.0 | 0.0 | 0.00 | 0.00 | 0.00 | 47 | 1015.8 | |
| 20260905221256 | 30 | 0.0 | 0.0 | 0.00 | 0.00 | 0.00 | 47 | 1016.1 | |
| 20260905220752 | 30 | 0.0 | 0.0 | 0.00 | 0.00 | 0.00 | 47 | 1016.1 | |
| 20260905220248 | 31 | 0.0 | 0.0 | 0.00 | 0.00 | 0.00 | 47 | 1016.1 | |
| 20260905215747 | 31 | 0.0 | 0.0 | 0.00 | 0.00 | 0.00 | 47 | 1016.1 | |
| 20260905215243 | 31 | 0.0 | 0.0 | 0.00 | 0.00 | 0.00 | 47 | 1016.5 | |
| 20260905214738 | 31 | 0.0 | 0.0 | 0.00 | 0.00 | 0.00 | 47 | 1016.1 | |
| 20260905214234 | 31 | 0.0 | 0.0 | 0.00 | 0.00 | 0.00 | 47 | 1016.1 | |
| 20260905213729 | 31 | 0.0 | 0.0 | 0.00 | 0.00 | 0.00 | 48 | 1016.1 | |
| 20260905213226 | 31 | 0.0 | 0.0 | 0.00 | 0.00 | 0.00 | 47 | 1015.8 | |
| 20260905212720 | 31 | 0.0 | 0.0 | 0.00 | 0.00 | 0.00 | 46 | 1016.1 | |
| 20260905212219 | 31 | 0.0 | 0.0 | 0.00 | 0.00 | 0.00 | 48 | 1016.1 | |
| 20260905211714 | 31 | 0.0 | 0.0 | 0.00 | 0.00 | 0.00 | 46 | 1016.1 | |
| 20260905211209 | 31 | 0.0 | 0.0 | 0.00 | 0.00 | 0.00 | 47 | 1015.8 | |
| 20260905210706 | 31 | 0.0 | 0.0 | 0.00 | 0.00 | 0.00 | 46 | 1016.1 | |
| 20260905210205 | 31 | 0.0 | 0.0 | 0.00 | 0.00 | 0.00 | 47 | 1015.8 | |
| 20260905205704 | 31 | 0.0 | 0.0 | 0.00 | 0.00 | 0.00 | 47 | 1015.8 | |
| 20260905205159 | 31 | 0.0 | 0.0 | 0.00 | 0.00 | 0.00 | 48 | 1016.1 | |
| 20260905204658 | 31 | 0.0 | 0.0 | 0.00 | 0.00 | 0.00 | 48 | 1015.8 | |
| 20260905204153 | 31 | 0.0 | 0.0 | 0.00 | 0.00 | 0.00 | 50 | 1016.1 | |
| 20260905203648 | 31 | 0.0 | 0.0 | 0.00 | 0.00 | 0.00 | 50 | 1016.1 | |
| 20260905203144 | 31 | 0.0 | 0.0 | 0.00 | 0.00 | 0.00 | 50 | 1016.1 | |
| 20260905202639 | 31 | 0.0 | 0.0 | 0.00 | 0.00 | 0.00 | 50 | 1016.1 | |
| 20260905202135 | 30 | 0.0 | 0.0 | 0.00 | 0.00 | 0.00 | 50 | 1016.1 | |
| 20260905201630 | 30 | 0.0 | 0.0 | 0.00 | 0.00 | 0.00 | 50 | 1016.1 | |
| 20260905201129 | 30 | 0.0 | 0.0 | 0.00 | 0.00 | 0.00 | 51 | 1016.1 | |
| 20260905200625 | 30 | 0.0 | 0.0 | 0.00 | 0.00 | 0.00 | 51 | 1015.8 | |
| 20260905200121 | 30 | 0.0 | 0.0 | 0.00 | 0.00 | 0.00 | 51 | 1016.1 | |
| 20260905195619 | 30 | 0.0 | 0.0 | 0.00 | 0.00 | 0.00 | 52 | 1016.1 | |
| 20260905195114 | 30 | 0.0 | 0.0 | 0.00 | 0.00 | 0.00 | 52 | 1016.1 | |
| 20260905194608 | 30 | 0.0 | 0.0 | 0.00 | 0.00 | 0.00 | 53 | 1016.1 | |
| 20260905194108 | 30 | 0.0 | 0.0 | 0.00 | 0.00 | 0.00 | 53 | 1016.1 | |
| 20260905193602 | 30 | 0.0 | 0.0 | 0.00 | 0.00 | 0.00 | 53 | 1016.1 |